TimeMST,TemperatureF,Dew PointF,Humidity,Sea Level PressureIn,VisibilityMPH,Wind Direction,Wind SpeedMPH,Gust SpeedMPH,PrecipitationIn,Events,Conditions,WindDirDegrees,DateUTC
12:53 AM,-5.1,-9.0,83,30.34,10.0,Calm,Calm,-,N/A,,Clear,0,2013-01-03 07:53:00
1:53 AM,-7.1,-11.0,83,30.35,10.0,South,3.5,-,N/A,,Clear,190,2013-01-03 08:53:00
2:53 AM,-9.0,-13.0,83,30.36,10.0,Calm,Calm,-,N/A,,Clear,0,2013-01-03 09:53:00
3:53 AM,-9.9,-14.1,82,30.38,10.0,Calm,Calm,-,N/A,,Clear,0,2013-01-03 10:53:00
4:53 AM,-9.0,-14.1,79,30.38,10.0,Calm,Calm,-,N/A,,Clear,0,2013-01-03 11:53:00
5:53 AM,-11.0,-15.0,83,30.43,10.0,Calm,Calm,-,N/A,,Clear,0,2013-01-03 12:53:00
6:53 AM,-11.9,-17.0,78,30.48,10.0,Calm,Calm,-,N/A,,Partly Cloudy,0,2013-01-03 13:53:00
7:53 AM,-13.0,-18.0,78,30.53,10.0,Calm,Calm,-,N/A,,Clear,0,2013-01-03 14:53:00
8:53 AM,-5.1,-8.0,87,30.53,10.0,Calm,Calm,-,N/A,,Clear,0,2013-01-03 15:53:00
9:53 AM,3.0,-0.0,87,30.52,10.0,Calm,Calm,-,N/A,,Clear,0,2013-01-03 16:53:00
10:53 AM,12.9,3.9,67,30.46,10.0,Calm,Calm,-,N/A,,Clear,0,2013-01-03 17:53:00
11:53 AM,24.1,8.1,51,30.40,10.0,East,6.9,-,N/A,,Clear,80,2013-01-03 18:53:00
12:53 PM,25.0,9.0,51,30.39,10.0,East,6.9,-,N/A,,Clear,100,2013-01-03 19:53:00
1:53 PM,25.0,9.0,51,30.39,10.0,NE,9.2,-,N/A,,Clear,40,2013-01-03 20:53:00
2:53 PM,25.0,8.1,49,30.40,10.0,NE,10.4,-,0.00,,Clear,50,2013-01-03 21:53:00
3:53 PM,24.1,8.1,51,30.41,10.0,East,10.4,-,N/A,,Clear,90,2013-01-03 22:53:00
4:53 PM,23.0,6.1,48,30.41,10.0,ENE,4.6,-,N/A,,Clear,70,2013-01-03 23:53:00
5:53 PM,17.1,6.1,62,30.46,10.0,ENE,6.9,-,N/A,,Clear,60,2013-01-04 00:53:00
6:53 PM,12.9,5.0,71,30.48,10.0,WNW,3.5,-,N/A,,Clear,300,2013-01-04 01:53:00
7:53 PM,3.0,-0.9,84,30.56,10.0,SSW,3.5,-,N/A,,Clear,200,2013-01-04 02:53:00
8:53 PM,3.0,-2.9,76,30.53,10.0,Calm,Calm,-,N/A,,Clear,0,2013-01-04 03:53:00
9:53 PM,-2.9,-8.0,79,30.53,10.0,SSW,3.5,-,N/A,,Clear,200,2013-01-04 04:53:00
10:53 PM,-4.0,-8.0,83,30.49,10.0,Calm,Calm,-,N/A,,Clear,0,2013-01-04 05:53:00
11:53 PM,-6.0,-11.0,79,30.45,8.0,Calm,Calm,-,N/A,,Clear,0,2013-01-04 06:53:00